• In Hungary
  • List of Countries
  • For 7 days
  • Water Temperature
  • Satellite Maps
  • Weather Map
  • News
  • Weather Widgets
  • user-avatar
    Login

    Hourly Weather Sahnovschina

    Today, 21 September, Friday

    Time Temperature Precipitation Wind Pressure Humidity
    00:00 +19°C° 0 mm 2 mps 749 mmHg 66%
    01:00 +19°C° 0 mm 2 mps 750 mmHg 68%
    02:00 +18°C° 0 mm 2 mps 750 mmHg 69%
    03:00 +19°C° 0 mm 1 mps 750 mmHg 71%
    04:00 +19°C° 0 mm 1 mps 750 mmHg 73%
    05:00 +18°C° 0 mm 1 mps 750 mmHg 76%
    06:00 +19°C° 0 mm 2 mps 750 mmHg 71%
    07:00 +21°C° 0 mm 2 mps 750 mmHg 67%
    08:00 +23°C° 0 mm 2 mps 751 mmHg 62%
    09:00 +25°C° 0 mm 2 mps 751 mmHg 57%
    10:00 +26°C° 0 mm 2 mps 751 mmHg 52%
    11:00 +28°C° 0 mm 2 mps 751 mmHg 46%
    12:00 +29°C° 0 mm 2 mps 750 mmHg 43%
    13:00 +29°C° 0 mm 2 mps 750 mmHg 39%
    14:00 +30°C° 0 mm 2 mps 750 mmHg 35%
    15:00 +29°C° 0 mm 2 mps 750 mmHg 37%
    16:00 +28°C° 0 mm 2 mps 750 mmHg 39%
    17:00 +27°C° 0 mm 1 mps 749 mmHg 41%
    18:00 +26°C° 0 mm 2 mps 750 mmHg 43%
    19:00 +25°C° 0 mm 2 mps 750 mmHg 45%
    20:00 +23°C° 0 mm 2 mps 750 mmHg 48%
    21:00 +23°C° 0 mm 2 mps 750 mmHg 48%
    22:00 +21°C° 0 mm 2 mps 750 mmHg 49%
    23:00 +20°C° 0 mm 2 mps 750 mmHg 50%

    Tomorrow, 22 September, Saturday

    Time Temperature Precipitation Wind Pressure Humidity
    00:00 +20°C° 0 mm 3 mps 750 mmHg 51%
    01:00 +19°C° 0 mm 3 mps 750 mmHg 52%
    02:00 +19°C° 0 mm 3 mps 750 mmHg 53%
    03:00 +18°C° 0 mm 3 mps 750 mmHg 54%
    04:00 +18°C° 0 mm 3 mps 750 mmHg 55%
    05:00 +18°C° 0 mm 3 mps 750 mmHg 56%
    06:00 +19°C° 0 mm 3 mps 750 mmHg 53%
    07:00 +21°C° 0 mm 3 mps 750 mmHg 50%
    08:00 +22°C° 0 mm 4 mps 750 mmHg 46%
    09:00 +25°C° 0 mm 3 mps 750 mmHg 42%
    10:00 +27°C° 0 mm 3 mps 749 mmHg 37%
    11:00 +28°C° 0 mm 3 mps 749 mmHg 33%
    12:00 +29°C° 0 mm 3 mps 749 mmHg 31%
    13:00 +29°C° 0 mm 3 mps 748 mmHg 29%
    14:00 +30°C° 0 mm 3 mps 748 mmHg 26%
    15:00 +29°C° 0 mm 2 mps 748 mmHg 29%
    16:00 +28°C° 0 mm 2 mps 747 mmHg 32%
    17:00 +27°C° 0 mm 2 mps 747 mmHg 34%
    18:00 +25°C° 0 mm 2 mps 747 mmHg 36%
    19:00 +24°C° 0 mm 2 mps 747 mmHg 38%
    20:00 +23°C° 0 mm 2 mps 747 mmHg 40%
    21:00 +21°C° 0 mm 3 mps 747 mmHg 42%
    22:00 +21°C° 0 mm 3 mps 746 mmHg 44%
    23:00 +20°C° 0 mm 3 mps 746 mmHg 46%

    Day after tomorrow, 23 September, Sunday

    Time Temperature Precipitation Wind Pressure Humidity
    00:00 +20°C° 0 mm 3 mps 746 mmHg 49%
    01:00 +19°C° 0 mm 3 mps 745 mmHg 53%
    02:00 +19°C° 0 mm 3 mps 745 mmHg 56%
    03:00 +19°C° 0 mm 4 mps 745 mmHg 57%
    04:00 +18°C° 0 mm 4 mps 744 mmHg 58%
    05:00 +18°C° 0 mm 4 mps 744 mmHg 59%
    06:00 +19°C° 0 mm 5 mps 744 mmHg 58%
    07:00 +19°C° 0 mm 5 mps 744 mmHg 57%
    08:00 +19°C° 0 mm 6 mps 744 mmHg 56%
    09:00 +16°C° 1 mm 6 mps 745 mmHg 63%
    10:00 +14°C° 1 mm 7 mps 745 mmHg 70%
    11:00 +11°C° 1 mm 7 mps 745 mmHg 77%
    12:00 +12°C° 0.7 mm 7 mps 745 mmHg 71%
    13:00 +12°C° 0.7 mm 7 mps 746 mmHg 65%
    14:00 +14°C° 0.7 mm 7 mps 746 mmHg 59%
    15:00 +14°C° 0 mm 6 mps 746 mmHg 58%
    16:00 +14°C° 0 mm 5 mps 746 mmHg 56%
    17:00 +15°C° 0 mm 4 mps 747 mmHg 55%
    18:00 +14°C° 0 mm 4 mps 747 mmHg 60%
    19:00 +13°C° 0 mm 4 mps 747 mmHg 64%
    20:00 +12°C° 0 mm 3 mps 748 mmHg 69%
    21:00 +11°C° 0 mm 4 mps 748 mmHg 70%
    22:00 +11°C° 0 mm 4 mps 748 mmHg 72%
    23:00 +11°C° 0 mm 4 mps 748 mmHg 74%

    24 September, Monday

    Time Temperature Precipitation Wind Pressure Humidity
    00:00 +10°C° 0 mm 4 mps 748 mmHg 76%
    01:00 +10°C° 0 mm 3 mps 748 mmHg 78%
    02:00 +9°C° 0 mm 3 mps 748 mmHg 80%
    03:00 +9°C° 0 mm 3 mps 749 mmHg 81%
    04:00 +9°C° 0 mm 3 mps 749 mmHg 82%
    05:00 +8°C° 0 mm 2 mps 749 mmHg 84%
    06:00 +10°C° 0 mm 3 mps 749 mmHg 76%
    07:00 +11°C° 0 mm 3 mps 749 mmHg 69%
    08:00 +13°C° 0 mm 3 mps 749 mmHg 61%
    09:00 +14°C° 0 mm 3 mps 749 mmHg 54%
    10:00 +17°C° 0 mm 4 mps 748 mmHg 47%
    11:00 +18°C° 0 mm 4 mps 748 mmHg 39%
    12:00 +19°C° 0 mm 5 mps 747 mmHg 37%
    13:00 +19°C° 0 mm 5 mps 747 mmHg 34%
    14:00 +20°C° 0 mm 5 mps 746 mmHg 32%
    15:00 +19°C° 0 mm 4 mps 745 mmHg 34%
    16:00 +19°C° 0 mm 4 mps 745 mmHg 37%
    17:00 +18°C° 0 mm 3 mps 745 mmHg 39%
    18:00 +17°C° 0 mm 5 mps 744 mmHg 40%
    19:00 +16°C° 0 mm 6 mps 743 mmHg 40%
    20:00 +16°C° 0 mm 7 mps 743 mmHg 41%
    21:00 +15°C° 0.2 mm 7 mps 742 mmHg 45%
    22:00 +15°C° 0.2 mm 8 mps 742 mmHg 49%
    23:00 +15°C° 0.2 mm 9 mps 741 mmHg 52%

    25 September, Tuesday

    Time Temperature Precipitation Wind Pressure Humidity
    00:00 +15°C° 0.4 mm 9 mps 741 mmHg 58%
    01:00 +15°C° 0.4 mm 8 mps 741 mmHg 64%
    02:00 +15°C° 0.4 mm 8 mps 740 mmHg 69%
    03:00 +14°C° 0.3 mm 7 mps 740 mmHg 70%
    04:00 +12°C° 0.3 mm 7 mps 740 mmHg 71%
    05:00 +13°C° 0.3 mm 6 mps 740 mmHg 71%
    06:00 +11°C° 0.4 mm 6 mps 740 mmHg 69%
    07:00 +11°C° 0.4 mm 7 mps 740 mmHg 67%
    08:00 +11°C° 0.4 mm 8 mps 740 mmHg 65%
    09:00 +11°C° 0 mm 8 mps 740 mmHg 60%
    10:00 +12°C° 0 mm 9 mps 740 mmHg 55%
    11:00 +13°C° 0 mm 9 mps 740 mmHg 49%
    12:00 +13°C° 0 mm 9 mps 740 mmHg 50%
    13:00 +12°C° 0 mm 10 mps 740 mmHg 50%
    14:00 +12°C° 0 mm 10 mps 740 mmHg 50%
    15:00 +11°C° 0 mm 10 mps 741 mmHg 52%
    16:00 +10°C° 0 mm 9 mps 741 mmHg 55%
    17:00 +8°C° 0 mm 9 mps 741 mmHg 57%
    18:00 +8°C° 0 mm 9 mps 742 mmHg 60%
    19:00 +7°C° 0 mm 9 mps 742 mmHg 62%
    20:00 +7°C° 0 mm 9 mps 743 mmHg 65%
    21:00 +7°C° 0 mm 9 mps 743 mmHg 63%
    22:00 +6°C° 0 mm 8 mps 744 mmHg 62%
    23:00 +6°C° 0 mm 8 mps 744 mmHg 60%

    26 September, Wednesday

    Time Temperature Precipitation Wind Pressure Humidity
    00:00 +6°C° 0 mm 7 mps 744 mmHg 60%
    01:00 +5°C° 0 mm 7 mps 745 mmHg 61%
    02:00 +5°C° 0 mm 6 mps 745 mmHg 61%
    03:00 +5°C° 0 mm 6 mps 745 mmHg 63%
    04:00 +5°C° 0 mm 5 mps 746 mmHg 66%
    05:00 +5°C° 0 mm 5 mps 746 mmHg 68%
    06:00 +6°C° 0 mm 5 mps 747 mmHg 64%
    07:00 +7°C° 0 mm 6 mps 747 mmHg 60%
    08:00 +8°C° 0 mm 6 mps 747 mmHg 56%
    09:00 +9°C° 0 mm 6 mps 748 mmHg 51%
    10:00 +10°C° 0 mm 6 mps 748 mmHg 46%
    11:00 +12°C° 0 mm 7 mps 748 mmHg 41%
    12:00 +13°C° 0 mm 6 mps 748 mmHg 40%
    13:00 +13°C° 0 mm 6 mps 748 mmHg 39%
    14:00 +14°C° 0 mm 6 mps 749 mmHg 37%
    15:00 +13°C° 0 mm 6 mps 749 mmHg 41%
    16:00 +13°C° 0 mm 5 mps 749 mmHg 46%
    17:00 +12°C° 0 mm 4 mps 750 mmHg 50%
    18:00 +11°C° 0 mm 4 mps 750 mmHg 57%
    19:00 +9°C° 0 mm 3 mps 751 mmHg 64%
    20:00 +8°C° 0 mm 3 mps 751 mmHg 71%
    21:00 +8°C° 0 mm 2 mps 752 mmHg 73%
    22:00 +7°C° 0 mm 2 mps 752 mmHg 76%
    23:00 +7°C° 0 mm 2 mps 753 mmHg 78%
    Show more